Вернуться в каталог

CZ-6A DEB

АктивенPO
NORAD 60898·DEBRIS·🇨🇳 China

Запущен Aug 6, 2024 с Taiyuan Satellite Launch Center

Loading…

Ближайшие Пролёты (ближайшие 24 часа)

TLE

СвежийSource: Space-Track

Эпоха: Sep 14, 2026, 13:58 UTC

1 60898U 24140LD  26257.58234859  .00003419  00000-0  48526-3 0  9993
2 60898  88.6768 227.1307 0150491 201.5718 157.9118 14.69180132110641

Отслеживайте CZ-6A DEB в реальном времени с AllMySat

Download on the App Store